time,msl,t2m,u10,v10,h700,tcc
1979-01-01,101561.44,288.5802,1.5553427,0.7349236,3083.1707,0.43337327
1979-02-01,101657.31,288.01605,1.286789,1.0430279,3081.7476,0.43321687
1979-03-01,101619.19,286.48602,0.66051674,0.46502876,3076.415,0.45622054
1979-04-01,101762.35,284.24796,0.0692749,-0.06687617,3075.419,0.57501566
1979-05-01,101528.32,282.89072,1.4364567,-2.0052662,3019.0244,0.85721314
1979-06-01,102059.836,280.18906,1.182765,-1.0257604,3044.046,0.72461206
1979-07-01,101443.66,280.1282,0.23698997,-2.745809,2999.475,0.7652633
1979-08-01,101333.984,281.16986,1.8313265,-2.4589324,2975.1328,0.8294524
1979-09-01,101819.8,280.26178,1.5298672,-1.3326523,3000.8267,0.71786356
1979-10-01,101822.89,282.44568,2.1327863,-0.5532932,3018.546,0.74328196
1979-11-01,101450.24,284.9663,1.369585,-0.5532932,3017.9219,0.6734126
1979-12-01,101478.55,287.15588,1.5786953,-0.29067683,3048.5703,0.50317395
1980-01-01,101643.055,288.9608,1.8451252,0.93143106,3083.458,0.56517327
1980-02-01,101250.97,288.11456,2.157199,-0.124494314,3045.507,0.6789633
1980-03-01,101420.29,287.0435,1.592493,-1.0797396,3054.7664,0.6156287
1980-04-01,101345.06,281.79333,0.9513626,-0.91355705,2982.2495,0.7218959
1980-05-01,101093.875,282.18835,1.1105843,-3.5124311,2971.7485,0.83866906
1980-06-01,101535.03,280.3025,1.0192966,-2.3073058,2990.8267,0.8075702
1980-07-01,101533.125,279.56097,0.57772255,-2.2636375,2985.933,0.84632933
1980-08-01,101579.61,280.9801,1.873785,-2.7809863,2995.1895,0.8571521
1980-09-01,101888.875,281.80054,1.558527,-1.0603316,3027.3362,0.7505188
1980-10-01,102111.33,283.02942,1.2740517,0.5687411,3053.5374,0.61240137
1980-11-01,101785.72,283.90863,2.3387117,0.3867898,3032.728,0.6219348
1980-12-01,101518.63,286.91043,2.223011,-0.42592692,3043.5125,0.6671181
1981-01-01,101542.25,287.59937,1.6222143,-0.031092167,3053.9604,0.6641768
1981-02-01,101585.305,287.62518,1.6710434,0.7045982,3068.0356,0.51602626
1981-03-01,101555.93,286.44635,0.9768381,0.24001527,3067.082,0.6488944
1981-04-01,101523.88,285.14682,0.1563158,-1.0918698,3044.437,0.669716
1981-05-01,100843.11,282.49725,1.5850639,-3.9109044,2951.3809,0.8638205
1981-06-01,101751.97,281.1018,1.388691,-1.481246,3014.8066,0.84400225
1981-07-01,101689.41,279.68884,0.3622427,-2.5414166,3008.2415,0.80893594
1981-08-01,101852.91,280.2262,1.3334942,-1.509752,3005.3838,0.75247204
1981-09-01,101960.68,280.3752,1.8780303,-1.3556993,3010.7761,0.71523887
1981-10-01,101845.305,283.3476,1.1434889,-0.36103106,3031.6052,0.59455544
1981-11-01,101785.22,284.02466,2.3450804,0.41104984,3032.7842,0.6276876
1981-12-01,101689.66,286.3669,2.2941294,0.9854102,3050.244,0.56404793
1982-01-01,101411.3,288.83188,1.8748474,-0.5102315,3064.2297,0.5388888
1982-02-01,101620.45,286.49634,1.7835598,1.0478799,3057.9927,0.5214205
1982-03-01,101635.4,285.78314,1.3770151,0.68276405,3060.5469,0.52827966
1982-04-01,101746.336,284.61206,0.27307987,-0.3579986,3073.4463,0.676682
1982-05-01,101107.42,283.21558,0.7549896,-3.2498145,2990.2385,0.88780075
1982-06-01,101317.2,278.19028,0.84521484,-1.9191427,2952.1257,0.6949934
1982-07-01,101324.1,279.09375,0.42381,-1.6183157,2958.5066,0.82378346
1982-08-01,101376.34,280.4268,0.9492407,-2.7361045,2974.5325,0.8614477
1982-09-01,101404.27,282.65195,0.042738914,-2.5183697,2996.6099,0.74278224
1982-10-01,101638.31,282.2131,2.453351,-1.2313659,2993.1284,0.8233218
1982-11-01,101601.64,284.08606,2.1603827,-0.039583683,3010.2893,0.6957563
1982-12-01,101612.66,287.35907,2.0043468,0.8258991,3061.3782,0.6007355
1983-01-01,101272.305,289.395,1.5330515,0.32128716,3060.7065,0.5314269
1983-02-01,101620.516,287.7149,1.8568015,0.99086857,3066.888,0.5647117
1983-03-01,101475.0,286.1498,1.2305298,0.1308446,3048.1812,0.67223
1983-04-01,101460.945,284.1505,1.286788,-0.72493434,3021.484,0.67488134
1983-05-01,101477.28,282.1136,0.5702925,-1.756599,2997.0623,0.7751324
1983-06-01,101672.88,278.75546,0.58302975,-0.8565459,2982.1633,0.7073574
1983-07-01,101572.516,278.68173,1.9863014,-1.1828454,2972.59,0.694631
1983-08-01,101755.96,279.69916,0.1510086,-1.4612308,3009.0295,0.7256459
1983-09-01,101968.59,280.1963,1.5160675,-0.8753476,3007.0784,0.7243068
1983-10-01,101837.64,283.39554,1.7580833,0.21272254,3035.399,0.7148574
1983-11-01,101945.35,285.62585,2.1051865,0.33281064,3069.3867,0.67870003
1983-12-01,101592.91,288.64572,1.6880255,0.6591103,3077.3232,0.5278447
1984-01-01,101484.82,288.17282,2.5021787,-0.11054468,3056.8728,0.60810965
1984-02-01,101398.83,286.6985,2.3026214,-0.5308528,3031.5137,0.6940129
1984-03-01,101546.55,286.3076,0.41531754,0.5541849,3067.3186,0.59245723
1984-04-01,101947.766,282.92627,0.9694071,-0.05717206,3054.5518,0.6051836
1984-05-01,101287.19,280.65417,2.2039046,-1.4854913,2954.4172,0.8237109
1984-06-01,101766.16,277.29608,0.22318935,-1.2932291,2978.6514,0.7111951
1984-07-01,101304.664,278.2207,-0.08251572,-1.9318795,2952.3408,0.8189767
1984-08-01,102017.54,279.38147,0.8006325,-0.63213897,3013.3176,0.76861656
1984-09-01,101545.03,282.02692,0.3633051,-2.3764472,3003.0127,0.7644737
1984-10-01,101454.68,282.39154,2.4501672,-2.9611182,2979.6157,0.80227137
1984-11-01,101806.05,284.7719,1.908814,0.36798787,3042.8667,0.6092808
1984-12-01,101503.875,287.11362,1.9130597,0.67548585,3046.695,0.6140608
1985-01-01,101538.38,288.06042,1.5372972,-0.12388778,3058.6982,0.50462747
1985-02-01,101532.125,287.4431,1.8727221,0.32068086,3061.5752,0.540575
1985-03-01,101507.86,285.56863,1.7241173,0.6136224,3039.5938,0.6794516
1985-04-01,101617.09,282.85822,1.8939533,-1.5358312,3012.9583,0.7783102
1985-05-01,101316.695,281.85986,1.840879,-2.7627912,2981.4382,0.851056
1985-06-01,101429.53,282.5354,-0.37972832,-2.9683962,3018.4043,0.89809716
1985-07-01,101743.234,280.1581,-0.20140076,-1.4891303,3013.6833,0.7350457
1985-08-01,102025.266,280.3809,1.4513178,-1.0967219,3021.4214,0.7554362
1985-09-01,101728.29,281.1936,1.3409243,-1.9088321,3006.4832,0.725375
1985-10-01,101650.02,282.6963,0.81018543,-0.7346382,3002.0461,0.6394908
1985-11-01,101604.875,286.0451,1.5680809,0.12053394,3057.1511,0.5128981
1985-12-01,101759.445,286.42776,1.7824984,0.97024727,3065.7144,0.56406695
1986-01-01,101588.28,287.3132,2.1434002,-0.13480473,3049.7004,0.54321104
1986-02-01,101636.59,287.05432,1.6540585,0.4559312,3061.35,0.66819006
1986-03-01,101709.48,285.12723,1.6954575,0.10233855,3054.2974,0.6515687
1986-04-01,101292.51,283.28827,1.0362816,-2.3194356,2998.898,0.77047443
1986-05-01,101193.54,282.0749,1.3472929,-2.8064594,2971.316,0.85612595
1986-06-01,101394.83,279.69193,1.1307516,-2.466817,2964.9397,0.8114576
1986-07-01,101803.89,280.0395,0.5331402,-1.8336258,3022.2485,0.8572246
1986-08-01,101551.43,279.28146,0.3739195,-1.0700352,2985.5454,0.7173065
1986-09-01,101827.32,281.09253,0.65945625,-1.5964823,3012.1746,0.7030313
1986-10-01,101880.14,284.36298,1.0235443,-0.447155,3047.4543,0.7149337
1986-11-01,101418.45,283.76837,2.2951908,-0.9535866,2994.2627,0.6669502
1986-12-01,101678.89,286.4154,2.011777,1.206178,3058.3418,0.56592095
1987-01-01,101615.95,288.0857,1.8918304,0.7409885,3073.2285,0.50637466
1987-02-01,101445.805,287.98666,0.9237633,0.4917152,3068.9773,0.49480033
1987-03-01,101430.164,286.91147,0.73057556,0.087176085,3063.7734,0.5517297
1987-04-01,101537.25,283.99994,1.0458345,-1.067003,3038.3423,0.7024629
1987-05-01,101708.21,280.95587,0.16480923,-0.86685634,3019.907,0.65536445
1987-06-01,101776.73,281.20648,1.3663988,-1.6164966,3019.478,0.82651865
1987-07-01,100899.72,280.8424,0.48219013,-2.705173,2943.7698,0.8681924
1987-08-01,101509.766,279.68213,0.048046112,-2.4170828,2978.1077,0.76488566
1987-09-01,101934.21,281.18585,0.89085865,-0.9220481,3012.5774,0.7270001
1987-10-01,101664.97,283.7978,1.4279652,-1.1737478,3019.0063,0.7358049
1987-11-01,101732.41,285.67487,1.9863014,0.4219668,3053.9326,0.6012658
1987-12-01,101704.55,286.21066,2.3535724,0.44925952,3047.917,0.6236972
1988-01-01,101642.234,287.06927,2.2888222,1.2383225,3055.8643,0.54758286
1988-02-01,101596.45,288.5931,1.0320349,2.1165419,3097.8057,0.45079195
1988-03-01,101638.81,285.97498,1.5712643,-0.18757057,3057.9243,0.57413054
1988-04-01,101735.695,283.55334,1.0840464,0.09445405,3050.7534,0.63930386
1988-05-01,101950.04,280.90326,0.22425175,-0.5526867,3047.768,0.6411121
1988-06-01,101626.27,279.7832,1.5818796,-1.9967747,2998.6902,0.7835327
1988-07-01,101961.44,277.95822,-0.32771587,-1.2453158,3020.5388,0.70633495
1988-08-01,101613.3,279.7595,1.2103624,-2.0465083,2975.1953,0.85619074
1988-09-01,102020.97,281.18997,0.83035374,-0.08810401,3032.31,0.63247144
1988-10-01,101946.43,282.11975,2.4395514,0.20908356,3021.0059,0.6892825
1988-11-01,101893.5,285.00757,2.3546343,0.30976343,3055.9426,0.66528314
1988-12-01,101656.61,286.1828,2.8354826,-0.19060302,3044.9055,0.7037065
1989-01-01,101493.555,287.99698,2.2453022,0.6718471,3063.5908,0.54847944
1989-02-01,101567.45,288.01813,1.4438877,1.1303649,3087.9224,0.4462904
1989-03-01,101644.766,285.58823,1.396121,-0.34162283,3056.872,0.56622237
1989-04-01,101706.19,283.71475,2.0234532,-0.8565459,3036.35,0.7631613
1989-05-01,101879.375,280.90793,0.12341118,-0.89778805,3045.3638,0.6588856
1989-06-01,101478.484,281.47464,1.3239412,-2.6772738,2998.6572,0.8649039
1989-07-01,101495.33,279.79767,0.21575928,-2.8064594,2991.54,0.8119116
1989-08-01,101615.32,279.957,1.3345547,-2.7852316,2976.5015,0.82165474
1989-09-01,102032.99,280.84088,1.0617552,0.5584307,3031.5376,0.64850914
1989-10-01,101974.3,283.23364,1.4916544,1.0775988,3054.019,0.5502037
1989-11-01,101668.39,285.30563,1.9640102,-0.37437415,3041.787,0.71259516
1989-12-01,101355.83,286.55307,2.7707324,-2.5129113,3019.684,0.7901096
1990-01-01,101565.67,287.33588,2.223011,1.0254393,3052.4333,0.53581023
1990-02-01,101596.45,288.49356,1.3356161,0.9174814,3091.7007,0.39042926
1990-03-01,101628.3,285.68726,1.7549,0.96357584,3056.6836,0.5454237
1990-04-01,101587.33,282.41522,1.1817017,0.099912405,3020.9316,0.7452467
1990-05-01,101612.34,281.72424,1.4842234,-2.2933564,3008.276,0.8439374
1990-06-01,101745.95,280.21692,1.8557396,-1.5449286,3013.3892,0.8282316
1990-07-01,101902.484,279.62024,0.7390671,-2.034985,3018.6208,0.7776159
1990-08-01,101719.3,280.70474,1.1158924,-1.4363647,3010.1726,0.7577251
1990-09-01,101720.81,281.04303,0.8781204,-1.5813193,3009.457,0.80275583
1990-10-01,101830.17,282.72208,1.968256,-0.3161497,3028.5198,0.6073581
1990-11-01,101726.64,283.65286,2.4119534,0.8622894,3027.9258,0.5834274
1990-12-01,101545.03,286.1075,2.267592,0.25335836,3039.7676,0.60906714
1991-01-01,101592.21,287.20233,2.053174,-0.1426897,3056.5303,0.62669194
1991-02-01,101689.16,287.3828,1.575511,1.009064,3082.395,0.47136176
1991-03-01,101601.266,285.28757,1.320756,0.87623906,3066.5874,0.58322525
1991-04-01,101515.47,283.27127,1.0851088,-0.5908966,3027.8423,0.71423554
1991-05-01,101326.766,281.36118,1.0585709,-1.6625905,2996.9277,0.69357806
1991-06-01,101669.59,279.77444,0.12447262,-1.2071056,3012.5845,0.8437085
1991-07-01,101611.97,278.54456,1.3526001,-1.7123241,2978.1987,0.7261609
1991-08-01,101958.91,278.5069,0.30386162,-0.8644304,3010.167,0.6744808
1991-09-01,101641.67,281.28436,1.2931576,-1.544322,2995.2012,0.7957365
1991-10-01,101865.195,281.9723,1.218854,0.63666964,3027.4646,0.5164192
1991-11-01,101551.05,284.91113,1.9162436,-1.1640437,3023.047,0.72570306
1991-12-01,101284.91,284.63318,2.843974,-0.85836506,2991.2847,0.74214137
1992-01-01,101562.89,288.82825,1.3950586,1.3505261,3087.5784,0.4254574
1992-02-01,101558.78,286.5773,1.7262392,0.11932111,3051.2947,0.6035242
1992-03-01,101281.17,286.88876,1.0108051,-0.62607384,3047.497,0.6987091
1992-04-01,101416.555,282.90567,1.4651165,-1.6352983,3004.813,0.7711115
1992-05-01,101232.54,279.89923,0.8929815,-0.66246414,2958.612,0.7250126
1992-06-01,101338.29,278.41406,0.7910795,-1.6583457,2948.123,0.8183358
1992-07-01,102078.2,277.36365,-0.020949364,-1.1816325,3009.4768,0.7010857
1992-08-01,101859.68,279.91675,0.59682846,-1.9597783,3013.483,0.83879113
1992-09-01,101838.66,280.57477,1.958703,-0.8983948,3013.9092,0.75806844
1992-10-01,101712.64,281.5453,3.1295114,-1.5473549,2995.2996,0.8068378
1992-11-01,101633.875,285.4856,1.4237194,-0.07718682,3043.7097,0.7016427
1992-12-01,101344.24,285.95538,2.276084,-2.1302066,3009.5098,0.6563411
1993-01-01,101582.016,287.00327,2.3631253,-0.2354846,3050.0366,0.6483146
1993-02-01,101693.66,288.2306,1.0936003,0.5893624,3093.74,0.50550866
1993-03-01,101473.03,286.4087,1.4587479,-1.1039996,3055.1096,0.6474105
1993-04-01,101474.81,283.3863,0.9651623,-1.2271206,3015.5986,0.7405773
1993-05-01,101285.23,280.78207,1.0086823,-2.389184,2965.6367,0.8522767
1993-06-01,101294.41,280.0859,1.0999689,-2.4941096,2969.88,0.76131874
1993-07-01,101876.59,278.53577,0.91845703,-1.6025467,3007.1724,0.7352174
1993-08-01,101958.336,279.83063,1.2814817,-1.37814,3025.8682,0.7255543
1993-09-01,102025.71,280.87543,0.9120884,-0.16331053,3032.228,0.65534544
1993-10-01,101845.375,283.1011,0.70510006,-0.2967415,3040.8955,0.6090863
1993-11-01,101718.03,284.0556,2.248486,-0.8389571,3023.9165,0.65363634
1993-12-01,101555.234,285.98944,2.6422935,0.30187893,3039.373,0.6482421
1994-01-01,101588.03,288.24658,1.9831171,0.87563276,3073.4907,0.49991986
1994-02-01,101706.5,286.9192,2.0054083,1.5203476,3071.5364,0.54279137
1994-03-01,101626.34,286.59998,0.8834286,0.16602182,3075.5745,0.60249794
1994-04-01,101594.99,283.28934,1.2400837,-1.1240146,3025.7944,0.6834381
1994-05-01,101419.78,282.63696,1.7623291,-2.9380708,2999.8286,0.8566562
1994-06-01,101390.41,281.72217,1.8780308,-2.784625,2984.4143,0.87739766
1994-07-01,101535.664,279.4176,0.6414118,-1.7074723,2993.8594,0.64594936
1994-08-01,101967.71,279.55682,1.4757318,-1.7711549,3010.4111,0.74449897
1994-09-01,101604.75,280.8316,1.3324327,-2.0865383,2992.5862,0.79162407
1994-10-01,101786.8,282.74994,1.6062927,-0.16634321,3019.022,0.71620405
1994-11-01,101599.234,284.71826,2.547822,-1.363584,3023.2952,0.7139075
1994-12-01,101421.43,286.99966,2.2315025,-1.0955088,3032.4988,0.6354699
1995-01-01,101614.56,287.061,2.1890435,0.29642034,3054.151,0.5837898
1995-02-01,101764.95,287.12653,1.0394659,1.0909417,3081.2085,0.41785818
1995-03-01,101725.695,285.40723,1.4576864,0.57056093,3064.2922,0.5683091
1995-04-01,101383.75,284.2588,0.9428711,-1.2531998,3029.901,0.68495643
1995-05-01,101863.67,282.25537,1.0840473,-1.5801065,3048.7793,0.7946378
1995-06-01,101342.41,279.71155,1.9449034,-2.2442293,2964.0864,0.8343315
1995-07-01,101427.125,277.5931,2.3641868,-2.6481614,2930.4746,0.82681626
1995-08-01,101649.08,278.22534,1.2305307,-1.5418968,2969.6887,0.8318977
1995-09-01,102090.43,280.2767,1.2538834,-0.3325255,3029.7053,0.71615446
1995-10-01,101803.13,282.62976,1.5967398,-0.76617646,3019.6052,0.7368425
1995-11-01,101888.11,284.45526,1.8578625,0.90656424,3049.3628,0.60903287
1995-12-01,101791.734,288.40024,1.6561823,1.3268723,3096.9958,0.49567777
1996-01-01,101652.234,286.8537,2.2697163,0.9854102,3050.5723,0.52530026
1996-02-01,101640.08,286.49686,2.2166429,0.39649367,3053.0688,0.58646405
1996-03-01,101651.92,285.68002,1.7591457,-0.022601366,3063.0835,0.5884707
1996-04-01,101754.5,282.53796,0.9927597,-1.3180957,3031.62,0.69671005
1996-05-01,101874.625,281.96143,0.8409691,-1.7942023,3044.3584,0.72978497
1996-06-01,101926.55,277.90253,-0.33726883,-1.3096051,3026.723,0.6685029
1996-07-01,101969.23,279.96268,-0.5485029,-1.3453894,3046.2026,0.6998497
1996-08-01,101578.34,280.72174,0.88448906,-2.547482,2988.2847,0.8636946
1996-09-01,102093.59,281.79178,1.3727684,-0.521755,3040.2861,0.6660042
1996-10-01,101840.49,282.93555,2.003285,-1.0585117,3024.2073,0.7349274
1996-11-01,101717.97,284.46716,2.3737397,-1.6534934,3025.4058,0.80047077
1996-12-01,101665.79,286.50873,1.993731,0.56874084,3047.756,0.5966536
1997-01-01,101555.55,287.61435,2.3960314,-0.8068123,3056.6084,0.6290342
1997-02-01,101696.945,285.65424,1.7028875,1.3001862,3062.541,0.47499734
1997-03-01,101611.2,286.59485,0.36542797,0.7658551,3091.3208,0.41107154
1997-04-01,101475.25,284.55737,1.7782516,-1.5728283,3035.0874,0.7824188
1997-05-01,101411.42,282.4694,-0.5283356,-1.8463616,3021.2378,0.7526895
1997-06-01,101096.53,280.90118,0.94393253,-2.2715225,2949.9565,0.8404964
1997-07-01,101391.86,280.29114,1.4024897,-2.555973,2977.6787,0.8166649
1997-08-01,101779.45,279.83582,0.96516037,-1.4891305,3007.9414,0.7780279
1997-09-01,101722.47,280.8151,0.9142103,-0.15481949,2997.3691,0.7322608
1997-10-01,101572.64,282.18216,1.6296463,-1.9118638,2988.6602,0.7285681
1997-11-01,101585.69,284.55893,2.2729006,-1.2022538,3018.52,0.72366595
1997-12-01,101488.17,286.23645,2.3801088,0.5723803,3035.1035,0.5825043
1998-01-01,101556.875,286.88412,2.1996593,0.55115247,3051.0566,0.60563004
1998-02-01,101596.07,289.346,0.24760342,1.4687946,3097.73,0.3703859
1998-03-01,101604.75,285.97345,1.0766163,-0.28097248,3059.8818,0.57208586
1998-04-01,101626.66,283.72354,-0.5092287,-0.7934692,3050.7842,0.6520989
1998-05-01,101628.94,284.26242,-0.47526073,-2.6645374,3045.7412,0.82896024
1998-06-01,101710.055,281.04663,-0.34363842,-2.6129847,3019.5254,0.8028665
1998-07-01,101845.69,280.7522,1.813281,-2.6857648,3017.4995,0.8574687
1998-08-01,101955.87,280.34943,1.9226131,-1.232579,3017.5261,0.76718986
1998-09-01,102183.95,280.27774,0.6859932,0.34857988,3033.7393,0.5718798
1998-10-01,102075.86,282.96808,1.9109368,-0.1572454,3054.1304,0.6259442
1998-11-01,101912.62,284.33926,1.7771912,0.61422896,3053.8242,0.61693347
1998-12-01,101828.52,286.4948,2.1338468,0.7798047,3074.4648,0.61535025
1999-01-01,101698.84,288.36206,1.5999241,2.092888,3095.773,0.39158514
1999-02-01,101537.94,287.42715,1.4714861,0.3843634,3071.8672,0.5184907
1999-03-01,101617.34,285.35413,0.8154936,-0.01350379,3053.765,0.52957284
1999-04-01,101944.086,283.10883,0.3123541,-0.05656576,3069.6453,0.49660477
1999-05-01,101861.9,281.18018,0.5649862,-0.81651664,3037.2695,0.77190876
1999-06-01,101610.51,278.2377,0.18179226,-1.6171031,2989.127,0.707159
1999-07-01,101997.09,278.37076,0.5501251,-2.2066264,3014.5298,0.72889614
1999-08-01,101686.305,280.67896,0.7284517,-2.531106,3005.9297,0.69753027
1999-09-01,101613.805,281.53445,1.4343338,-1.5873842,2992.017,0.8086346
1999-10-01,102006.66,284.02933,0.6477804,-0.21061778,3060.6777,0.54239464
1999-11-01,101842.71,285.4397,1.677412,-0.07961297,3056.8987,0.6537279
1999-12-01,101789.91,286.26944,2.1954122,0.5177946,3063.7512,0.55522406
2000-01-01,101686.19,287.17447,2.0064692,0.4553249,3060.2625,0.5917896
2000-02-01,101541.93,286.62885,1.498023,-0.3216083,3049.1519,0.5669892
2000-03-01,101695.11,284.4527,1.619031,0.20726418,3047.5073,0.57699555
2000-04-01,101748.484,283.49768,0.8547678,-0.9463084,3052.633,0.6913082
2000-05-01,101796.67,281.53754,-0.19715405,-1.3217349,3038.5623,0.7498131
2000-06-01,100961.84,280.05084,0.5150957,-3.019949,2938.9082,0.7948972
2000-07-01,102014.5,278.64047,0.6902399,-1.4309058,3007.7542,0.7413326
2000-08-01,101804.41,280.05756,1.0341578,-1.0785267,3000.8804,0.71722263
2000-09-01,101759.95,279.92914,0.52571106,-1.4472818,2991.2212,0.78884685
2000-10-01,101823.66,283.164,1.4311495,-0.13662457,3039.5728,0.61890197
2000-11-01,101778.0,283.63638,1.9342899,-0.38589787,3025.4277,0.65459
2000-12-01,101698.4,285.6532,2.784532,-0.06990886,3043.5784,0.6738132
2001-01-01,101455.06,286.7882,2.155076,-1.1246212,3039.9287,0.6250515
2001-02-01,101535.85,287.21933,1.8599858,-0.102053165,3061.5796,0.57696503
2001-03-01,101650.91,285.07202,1.0819235,0.050179243,3062.4526,0.51974577
2001-04-01,101854.94,282.51117,0.93544006,0.47776532,3059.5752,0.5535875
2001-05-01,101407.375,281.09253,0.76772785,-2.1114044,2994.9443,0.7435338
2001-06-01,101812.06,279.9843,1.1562271,-2.0980616,3019.519,0.8312492
2001-07-01,101279.91,278.62448,0.40151787,-2.4795537,2959.106,0.8144561
2001-08-01,101680.42,280.50568,0.7125311,-2.5135174,3001.482,0.7868669
2001-09-01,102047.234,281.42926,0.35481358,-0.6867242,3035.0205,0.6109861
2001-10-01,101898.19,283.5843,0.9237642,0.2903552,3052.1147,0.60952115
2001-11-01,101820.61,283.7885,2.0478678,-0.33859062,3029.8965,0.5946164
2001-12-01,101759.89,287.45862,1.6338911,1.219521,3080.8613,0.5048945
2002-01-01,101669.52,287.71802,1.788867,0.974493,3076.8018,0.5000992
2002-02-01,101547.125,287.636,1.269805,1.2073908,3087.4844,0.39746386
2002-03-01,101358.49,284.6992,1.4077969,-1.6959491,3015.8967,0.700338
2002-04-01,101567.64,282.98096,1.8154039,-1.8506079,3018.5317,0.7390437
2002-05-01,101300.3,281.97693,0.43017673,-2.0592456,2992.185,0.9237331
2002-06-01,101784.14,278.31198,0.8621979,-0.8359244,3002.2883,0.7434918
2002-07-01,101868.8,280.06427,0.71996117,-2.2824397,3020.5183,0.8594487
2002-08-01,101490.195,280.67844,0.73057556,-2.7458086,2979.219,0.862306
2002-09-01,101678.39,281.2003,1.3727684,-3.0915165,2990.1543,0.88711417
2002-10-01,101318.02,282.36935,2.3716173,-3.4669437,2967.401,0.7932416
2002-11-01,101619.82,283.95764,2.352511,-0.88565826,3016.7856,0.7533418
2002-12-01,101618.93,286.4391,1.9480877,-0.2203219,3048.6426,0.58736444
2003-01-01,101608.87,287.52463,2.5457,-0.2876439,3060.8765,0.66239524
2003-02-01,101695.484,286.56647,1.6009855,0.59421444,3068.5361,0.5511078
2003-03-01,101722.72,286.43756,0.31341553,1.0533385,3091.4758,0.5190133
2003-04-01,101825.62,282.91132,0.13721085,-0.108118534,3057.1309,0.58779925
2003-05-01,101759.445,282.0058,0.30173874,-1.1828456,3037.2551,0.7012231
2003-06-01,101182.016,281.14462,1.1105843,-2.9538403,2969.005,0.814334
2003-07-01,101948.14,279.43976,0.9757767,-0.9845183,3018.8818,0.7481688
2003-08-01,102005.01,280.38397,0.714653,-2.1477952,3029.143,0.75563836
2003-09-01,101768.44,281.47052,1.2899733,-2.66575,3004.6716,0.85345936
2003-10-01,101700.875,283.1011,2.2028427,-2.0998807,3013.517,0.7877405
2003-11-01,101564.54,284.74664,1.9640112,-0.6952157,3026.409,0.74796665
2003-12-01,101723.28,284.67188,2.8312368,-0.035337687,3030.9463,0.75229275
2004-01-01,101688.84,288.2213,1.4736099,1.0278654,3090.917,0.47146857
2004-02-01,101608.55,288.84167,0.7422514,1.2613697,3104.107,0.3549586
2004-03-01,101449.8,286.80316,0.89722633,-0.7898302,3058.727,0.54110146
2004-04-01,101471.39,283.68896,1.5532188,-1.6898837,3018.9204,0.7516824
2004-05-01,102028.69,281.13016,-1.2809219,-0.05353284,3081.2578,0.6140647
2004-06-01,101390.72,281.37357,1.7952352,-3.2613382,2985.1062,0.8463446
2004-07-01,101559.03,279.84253,0.4131937,-1.7481079,2986.0076,0.79907835
2004-08-01,101903.69,280.1308,-0.09631443,-0.95722556,3029.9543,0.6472731
2004-09-01,101884.76,280.9414,1.9555182,-1.1409962,3015.8047,0.80443823
2004-10-01,101645.21,283.19342,2.2028432,-1.8960953,3008.983,0.8127241
2004-11-01,101753.43,284.90753,1.403552,0.07140684,3042.4375,0.6731227
2004-12-01,101534.586,286.46695,2.5467606,-1.4776068,3036.5234,0.66274244
2005-01-01,101745.26,286.6196,2.2675934,0.7288585,3062.9468,0.5671303
2005-02-01,101555.99,289.28308,0.66157913,1.7544584,3108.6746,0.30446872
2005-03-01,101650.086,285.63,1.4980221,-1.4017937,3052.38,0.7148765
2005-04-01,101889.25,282.8737,0.79851055,-0.6309259,3053.1313,0.6191385
2005-05-01,101015.984,281.01465,1.8960762,-3.5282006,2944.5708,0.86836785
2005-06-01,101353.05,279.4248,1.0415878,-3.0314722,2954.3518,0.8289335
2005-07-01,101808.39,279.81262,0.00028038025,-1.6917028,3024.231,0.77055454
2005-08-01,101527.43,279.25668,0.33146095,-2.0847182,2970.5557,0.81244946
2005-09-01,102159.51,280.93213,0.6785631,-1.0378909,3036.176,0.6801268
2005-10-01,102049.45,282.3766,1.5298662,-0.5466218,3035.967,0.7925434
2005-11-01,101509.89,284.69714,2.5764823,-1.3829918,3015.3948,0.77146244
2005-12-01,101642.55,286.4319,1.8143425,1.8575642,3062.0112,0.49777976
2006-01-01,101442.45,287.28174,1.8812165,-0.037157297,3053.544,0.50511193
2006-02-01,101486.72,288.51215,1.1477346,1.2261927,3085.5032,0.4537943
2006-03-01,101623.42,285.02615,1.5606489,-0.5987811,3046.1536,0.65356004
2006-04-01,101640.336,283.49146,1.0713091,-1.196795,3046.2393,0.644824
2006-05-01,101718.47,281.23898,-0.5654869,-1.4284799,3052.5374,0.65061116
2006-06-01,101311.06,281.46744,0.35056686,-2.949594,2981.8984,0.8227458
2006-07-01,101340.44,280.10602,0.9906368,-2.947775,2967.0923,0.7829453
2006-08-01,101604.17,280.0251,0.7815256,-1.3563058,2997.505,0.7771046
2006-09-01,101952.64,280.97858,1.1137686,-0.9523735,3023.6743,0.78395617